#timestamp,LO_Frequency,Hit 
1500476415.2,286047000.0,N
1500476435.9,286047000.0,N
1500476455.7,286047002.3,N
1500476475.6,286047000.2,N
1500476495.4,286047002.3,N
1500476515.2,286047002.7,N
1500476535.1,286047002.3,N
1500476536.0,286047002.3,N
1500476555.8,286047002.2,N
1500476575.7,286047002.8,N
1500476595.5,286046999.8,N
1500476615.3,286047002.8,N
1500476635.2,286047002.2,N
1500476655.0,286047002.1,N
1500476655.9,286047002.1,N
1500476675.8,286047002.8,N
1500476695.6,286047002.6,N
1500476715.4,286047001.5,N
1500476735.3,286047001.3,N
1500476755.1,286047001.3,N
1500476775.9,286047001.9,N
1500476795.7,286047002.3,N
1500476815.5,286047002.6,N
1500476835.4,286047002.3,N
1500476855.2,286047002.3,N
1500476875.1,286047002.3,N
1500476876.0,286047002.3,N
1500476895.8,286047001.6,N
1500476915.6,286047001.5,N
1500476935.5,286047001.7,N
1500476955.3,286047001.4,N
1500476975.1,286047004.2,N
1500476995.9,286047001.8,N
1500477015.7,286047002.3,N
1500477035.6,286047002.3,N
1500477055.4,286047002.4,N
1500477075.2,286047002.1,N
1500477095.1,286047001.4,N
1500477096.0,286047001.4,N
1500477115.8,286047003.9,N
1500477135.7,286047001.7,N
1500477155.5,286047001.4,N
1500477175.3,286047001.6,N
1500477195.2,286047002.2,N
1500477215.9,286047002.1,N
1500477235.7,286047002.3,N
1500477255.6,286047002.6,N
1500477275.4,286047001.9,N
1500477295.3,286047004.2,N
1500477315.1,286047003.7,N
1500477316.0,286047003.7,N
1500477335.8,286047004.3,N
1500477355.7,286047004.1,N
1500477375.5,286047004.1,N
1500477395.3,286047001.7,N
1500477415.2,286047002.5,N
1500477435.0,286047002.0,N
1500477435.9,286047002.0,N
1500477455.8,286047002.6,N
1500477475.6,286047002.4,N
1500477495.4,286047002.3,N
1500477515.3,286047002.3,N
1500477535.1,286047000.2,N
1500477555.8,286047000.1,N
1500477575.7,286047002.8,N
1500477595.5,286047002.2,N
1500477615.4,286047000.7,N
1500477635.2,286047000.4,N
1500477655.0,286047000.3,N
1500477655.9,286047000.3,N
1500477675.8,286047000.0,N
1500477695.6,286046998.1,N
1500477715.5,286046998.4,N
1500477735.3,286046999.0,N
1500477755.1,286046998.3,N
1500477775.9,286047000.5,N
1500477795.7,286046998.5,N
1500477815.5,286047001.1,N
1500477835.4,286046998.5,N
1500477855.2,286046998.7,N
1500477875.1,286047001.1,N
1500477876.0,286047001.1,N
1500477895.8,286046998.9,N
1500477915.6,286046998.4,N
1500477935.5,286047000.9,N
1500477955.3,286047000.9,N
1500477975.1,286047001.0,N
1500477995.9,286047000.8,N
1500478015.7,286047001.2,N
1500478035.6,286047000.9,N
1500478055.4,286047000.7,N
1500478075.2,286046998.2,N
1500478095.1,286046999.7,N
1500478096.0,286046999.7,N
1500478115.8,286047002.6,N
1500478135.6,286047002.3,N
1500478155.5,286047002.2,N
1500478175.3,286047002.1,N
1500478195.2,286047002.7,N
1500478215.9,286047000.0,N
1500478235.7,286047002.8,N
1500478255.1,286047000.0,N
1500478275.9,286047001.1,N
1500478295.7,286047000.7,N
1500478315.6,286046999.4,N
1500478335.4,286046999.0,N
1500478355.2,286046998.3,N
1500478375.1,286046998.7,N
1500478376.0,286046998.7,N
1500478395.8,286046998.2,N
1500478415.7,286046998.8,N
1500478435.5,286046998.7,N
1500478455.3,286046998.8,N
1500478475.2,286046999.4,N
1500478495.0,286046999.3,N
1500478495.9,286046999.3,N
1500478515.7,286046999.5,N
1500478535.6,286046996.5,N
1500478555.4,286046996.7,N
1500478575.3,286046996.6,N
1500478595.1,286046996.7,N
1500478596.0,286046996.7,N
1500478615.8,286046997.3,N
1500478635.7,286046995.3,N
1500478655.5,286046997.2,N
1500478675.4,286046997.5,N
1500478695.2,286046995.3,N
1500478715.0,286046994.9,N
1500478715.9,286046994.9,N
1500478735.8,286046995.7,N
1500478755.6,286046995.5,N
1500478775.4,286046996.1,N
1500478795.3,286046996.2,N
1500478815.1,286046996.1,N
1500478835.9,286046993.4,N
1500478855.7,286046995.7,N
1500478875.5,286046995.6,N
1500478895.4,286046995.8,N
1500478915.2,286046995.8,N
1500478935.0,286046996.1,N
1500478935.9,286046996.1,N
1500478955.8,286046995.4,N
1500478975.6,286046995.4,N
1500478995.5,286046995.6,N
1500479015.3,286046995.7,N
1500479035.1,286046995.6,N
1500479055.9,286046995.8,N
1500479075.7,286046995.2,N
1500479095.6,286046995.4,N
1500479115.4,286046995.0,N
1500479135.2,286046995.4,N
1500479155.1,286046995.4,N
1500479156.0,286046995.4,N
1500479175.8,286046995.4,N
1500479195.6,286046995.4,N
1500479215.5,286046995.5,N
1500479235.3,286046995.1,N
1500479255.2,286046996.1,N
1500479275.9,286046996.1,N
1500479295.7,286046995.4,N
1500479315.6,286046994.9,N
1500479335.4,286046994.9,N
1500479355.2,286046995.3,N
1500479375.1,286046995.1,N
1500479376.0,286046995.1,N
1500479395.8,286046995.3,N
1500479415.7,286046994.9,N
1500479435.5,286046995.0,N
1500479455.3,286046997.4,N
1500479475.2,286046997.5,N
1500479495.0,286046996.7,N
1500479495.9,286046996.7,N
1500479515.8,286046996.9,N
1500479535.6,286046996.8,N
1500479555.4,286046996.6,N
1500479575.3,286046996.9,N
1500479595.1,286046997.3,N
1500479615.8,286046998.0,N
1500479635.7,286046997.5,N
1500479655.5,286046998.0,N
1500479675.4,286046997.4,N
1500479695.2,286046996.7,N
1500479715.0,286046997.3,N
1500479715.9,286046997.3,N
1500479735.8,286046997.0,N
1500479755.6,286046997.1,N
1500479775.5,286046997.4,N
1500479795.3,286046995.2,N
1500479815.1,286046997.9,N
1500479835.9,286046997.2,N
1500479855.7,286046996.9,N
1500479875.6,286046999.2,N
1500479895.4,286046999.2,N
1500479915.2,286046997.2,N
1500479935.1,286046999.2,N
1500479936.0,286046999.2,N
1500479955.8,286046998.7,N
1500479975.6,286046998.4,N
1500479995.5,286046998.7,N
